NOAA NWS Hourly Roundups by Site

Regional Weather Roundup for San Diego, CA

To Select Another Site Choose from List

Select Site:  

000
ASUS46 KSGX 250711
RWRSGX

SAN DIEGO HOURLY WEATHER ROUNDUP
NATIONAL WEATHER SERVICE SAN DIEGO CA
1200 AM PDT FRI SEP 25 2020

NOTE: "FAIR" INDICATES FEW OR NO CLOUDS BELOW 12,000 FEET WITH NO
SIGNIFICANT WEATHER AND/OR OBSTRUCTIONS TO VISIBILITY.

CAZ042-043-060-061-PZZ750-775-250800-

GREATER SAN DIEGO AREA

CITY           SKY/WX    TMP DP  RH WIND       PRES   REMARKS
SAN DIEGO AP   CLOUDY    70  63  78 S6        29.91S
CHULA VISTA      N/A     68  65  89 CALM      29.80F
BROWN FIELD    FOG       64  63  96 CALM      29.90F VSB 1/2
MIRAMAR MCAS   CLOUDY    66  65  96 SW3       29.90S
MONTGOMERY FLD CLOUDY    68  63  84 S5        29.90F
GILLESPIE FLD  FAIR      66  63  88 CALM      29.89S
LEMON GROVE      N/A     66  64  94 CALM      29.87S

$$

NORTH SAN DIEGO COUNTY

CITY           SKY/WX    TMP DP  RH WIND       PRES   REMARKS
CAMP PENDLETON CLOUDY    64  59  82 NE5       29.89S HAZE
OCEANSIDE AP   CLOUDY    67  67 100 CALM      29.88F
OCEANSIDE HBR    N/A     67  66  97 SE1       29.96S
VISTA            N/A     66  60  81 CALM      29.87S
CARLSBAD       CLOUDY    66  64  93 S3        29.89S FOG
ENCINITAS        N/A     67  65  94 CALM        N/A
LA JOLLA SCRIP   N/A     66  62  86 CALM      29.88F
FALLBROOK      FOG       61  61 100 CALM      29.91S VSB 1/2
ESCONDIDO        N/A     68  62  82 CALM      29.88S
SAN MARCOS       N/A     65  60  86 CALM      29.91S
RANCHO BERNARD   N/A     66  63  90 CALM      29.88S
POWAY            N/A     63  59  88 CALM      29.90S

$$

EAST SAN DIEGO COUNTY

CITY           SKY/WX    TMP DP  RH WIND       PRES   REMARKS
RAMONA         CLEAR     56  50  80 CALM      29.92F
LA MESA          N/A     65  54  67 CALM      29.84S
JAMUL            N/A     58  56  92 CALM      29.87F
DESCANSO N       N/A     57  35  43 NE6       29.91S
CAMPO            N/A     55  39  54 NE7       29.96S

$$

ORANGE COUNTY AND THE LOS ANGELES BASIN

CITY           SKY/WX    TMP DP  RH WIND       PRES   REMARKS
JOHN WAYNE AP  CLEAR     68  63  84 S3        29.88S
LAKE FOREST FR   N/A     64  51  62 CALM      29.75S
HUNTINGTON BCH   N/A     67  66  97 CALM      29.88S
FULLERTON      CLEAR     69  63  81 CALM      29.88R
LONG BEACH     CLOUDY    66  66 100 SE5       29.89R FOG
L.A. AP        PTCLDY    68  57  68 CALM      29.88S
L.A. DOWNTOWN  CLEAR     68  59  73 CALM      29.88S

$$

THE INLAND EMPIRE

CITY           SKY/WX    TMP DP  RH WIND       PRES   REMARKS
CORONA         CLEAR     62  58  86 CALM      29.90S
UPLAND AP      FAIR      72  43  35 NE3       29.92S
CHINO          CLEAR     68  54  60 CALM      29.91S
ONTARIO        CLEAR     71  54  54 CALM      29.90S
SAN BERNARDINO FAIR      72  45  38 CALM      29.92S
RIVERSIDE AP   CLEAR     70  52  52 CALM      29.90S
MORENO VALLEY    N/A     68  52  56 CALM      29.85F
LAKE ELSINORE    N/A     63  51  64 CALM      29.81F
HEMET AP       FAIR      64  45  50 CALM      29.93S
FRENCH VALLEY  FAIR      66  48  52 CALM      29.93S
TEMECULA         N/A     66  53  63 CALM      29.90S

$$

SAN BERNARDINO AND RIVERSIDE COUNTY MOUNTAINS

CITY           SKY/WX    TMP DP  RH WIND       PRES   REMARKS
BIG BEAR AP    CLEAR     43  25  49 CALM      30.24S
BIG BEAR LAKE    N/A     47  28  46 SW2       29.94F
LK ARROWHEAD N   N/A     64  42  44 CALM      29.82S
WRIGHTWOOD       N/A     59   8  13 CALM      29.85S
ANGELUS OAKS     N/A     57  32  38 CALM      29.78S
IDYLLWILD        N/A     53  28  38 CALM      29.82R
TORO PEAK        N/A     59  22  24 NW2         N/A

$$

SOUTHERN DESERT INCLUDING THE COACHELLA VALLEY

CITY           SKY/WX    TMP DP  RH WIND       PRES   REMARKS
PALM SPRINGS   CLEAR     85  45  24 S5        29.78S
THOUSAND PALMS   N/A     87  46  23 N13       29.70F
PALM DESERT      N/A     83  51  33 CALM      31.89S
INDIO            N/A     88  45  22 NW7       29.73S
THERMAL        NOT AVBL
BORREGO AP     FAIR      84  28  13 NW7       29.79R
OCOTILLO WELLS   N/A     91  35  14 NW6       29.68S
CANEBRAKE        N/A     88  29  12 N2        29.70S
BLYTHE         CLEAR     86  37  17 SW5       29.75S
IMPERIAL AP    CLEAR     80  45  28 W8        29.74S
YUMA AZ        CLEAR     83  47  28 S5        29.76S

$$

UPPER DESERT

CITY           SKY/WX    TMP DP  RH WIND       PRES   REMARKS
HESPERIA         N/A     66  38  35 NW3       29.87S
APPLE VALLEY     N/A     58  46  63 E2        29.91S
PALMDALE       CLEAR     65  37  35 SW5       29.97F
LANCASTER      CLEAR     72  38  29 W16       29.95F
GRAY BUTTE AP  FAIR      60  11  14 S6        29.96F
DAGGETT        CLEAR     77  37  23 NW15      29.90S
29 PALMS N     CLEAR     80  37  21 NW9       29.95S
29 PALMS JTNP    N/A     81  38  21 CALM      29.71S
NEEDLES        CLEAR     85  30  13 SW3       29.78S

$$

REGIONAL REPORTS

CITY           SKY/WX    TMP DP  RH WIND       PRES   REMARKS
LAS VEGAS NV   CLEAR     83  31  15 S6        29.85S
PHOENIX AZ     CLEAR     88  43  20 W5        29.79R
TIJUANA        FOG       64  61  88 CALM      29.93S VSB 1/4
ENSENADA NW      N/A     67  32  27 CALM      29.88S

$$

OFFSHORE ISLANDS

CITY           SKY/WX    TMP DP  RH WIND       PRES   REMARKS
CATALINA ARPT  CLEAR     73  42  32 SE5       29.93F
SAN CLEMENTE I   N/A    N/A N/A N/A S7        29.90F
SAN NICOLAS IS CLEAR     61  57  87 W13       29.88S

$$

MARINE AND OFFSHORE BUOY REPORTS

STATION/POSITION SKY/WX   TEMP    WIND        PRES    VSBY  SWELL
                          AIR SEA DIR/SP/G                  HT/PER/DIR
                          (F)     (DEG/KT/KT) (MB)    (MI)  (FT/S/D)
TANNER BANKS               66     300/ 16/ 21 1012.4F         7/300/17
S CLEMENTE BASIN           69                 1011.9F         5/170/11
SAN NICOLAS IS.               64                N/A           5/300/17
SO. S. ROSA ISLA           64 66              1012.0S         7/310/16
W. S. BARBARA CH                  300/ 23/ 29 1011.5F         7/310/16
M. S. BARBARA CH           65 66  120/  2/  2 1011.7R         3/270/ 7
S. MONICA BASIN            68 69  160/  4/  6 1011.5R         3/160/11
S PEDRO CHANNEL               67                N/A           2/180/11
OCEANSIDE OFFSHR              72                N/A           2/180/11
TORREY PINES OTR              70                N/A           3/200/11
SAN DIEGO BAY                 71              1012.2F
IMPERIAL BEACH                66                N/A           2/270/18
POINT LOMA SOUTH              73                N/A           3/180/11

$$



 

View Past Reports for San Diego, CA.

Products Courtesy of NOAA-NWS
NWS Information Parsing Script by Ken True at Saratoga Weather - Script by SE Lincoln Weather.